Location: Gleizolles
(44.4833°N, 6.7667°E)
Time: 15:26:46
(UTC+00:00)

Altair - Pass Details

Date: 04 July 2024
Orbit: 1502 x 1681 km, 47.2° (Epoch: 13 July)

Event Time Altitude Azimuth Distance (km) Brightness Sun altitude
Rises 02:30:50 0° 287° (WNW) 4,647 9.8 -11.9°
Reaches altitude 10° 02:33:50 10° 288° (WNW) 3,675 9.3 -11.5°
Maximum altitude 02:43:08 90° 9° (N) 1,548 7.5 -10.4°
Drops below altitude 10° 02:52:45 10° 111° (ESE) 3,789 9.9 -9.3°
Sets 02:55:53 0° 111° (ESE) 4,797 10.4 -8.9°
